Location: Ciserano
(45.5833°N, 9.6000°E)
Time: 00:12:07
(UTC+00:00)

FALCON 9 DEB - Pass Details

Date: 21 June 2021
Orbit: 364 x 377 km, 53.0° (Epoch: 26 July)

Event Time Altitude Azimuth Distance (km) Brightness Sun altitude
Rises 23:53:47 0° 297° (WNW) 2,268 7.0 -20.6°
Reaches altitude 10° 23:56:09 10° 314° (NW) 1,414 6.2 -20.6°
Maximum altitude 23:58:41 21° 7° (N) 919 5.6 -20.5°
Drops below altitude 10° 00:01:12 10° 60° (ENE) 1,410 6.2 -20.4°
Sets 00:03:34 0° 77° (ENE) 2,262 7.1 -20.4°
